TimeMDT,TemperatureF,Dew PointF,Humidity,Sea Level PressureIn,VisibilityMPH,Wind Direction,Wind SpeedMPH,Gust SpeedMPH,PrecipitationIn,Events,Conditions,WindDirDegrees,DateUTC
12:51 AM,39.0,33.1,79,30.07,10.0,Calm,Calm,-,N/A,,Overcast,0,2011-10-17 06:51:00
1:51 AM,39.9,34.0,79,30.07,10.0,Calm,Calm,-,N/A,,Overcast,0,2011-10-17 07:51:00
2:51 AM,41.0,33.1,73,30.08,10.0,Calm,Calm,-,N/A,,Overcast,0,2011-10-17 08:51:00
3:51 AM,39.0,33.1,79,30.08,10.0,Calm,Calm,-,N/A,,Overcast,0,2011-10-17 09:51:00
4:51 AM,39.0,30.9,73,30.11,10.0,WNW,5.8,-,N/A,,Overcast,290,2011-10-17 10:51:00
5:51 AM,36.0,30.0,79,30.14,10.0,WNW,5.8,-,N/A,,Mostly Cloudy,300,2011-10-17 11:51:00
6:51 AM,32.0,27.0,82,30.18,10.0,West,4.6,-,N/A,,Clear,270,2011-10-17 12:51:00
7:51 AM,30.9,28.0,89,30.20,10.0,West,5.8,-,N/A,,Clear,270,2011-10-17 13:51:00
8:51 AM,37.0,30.0,76,30.23,10.0,West,8.1,-,N/A,,Clear,280,2011-10-17 14:51:00
9:51 AM,42.1,28.9,60,30.23,10.0,West,11.5,-,N/A,,Clear,280,2011-10-17 15:51:00
10:51 AM,48.0,23.0,37,30.22,10.0,NW,15.0,21.9,N/A,,Clear,310,2011-10-17 16:51:00
12:51 PM,52.0,24.1,34,30.19,10.0,NW,19.6,31.1,N/A,,Clear,310,2011-10-17 18:51:00
1:51 PM,53.1,25.0,34,30.18,10.0,WNW,25.3,33.4,N/A,,Clear,290,2011-10-17 19:51:00
2:51 PM,53.1,24.1,32,30.17,10.0,NW,20.7,27.6,N/A,,Clear,310,2011-10-17 20:51:00
3:51 PM,53.1,21.9,30,30.18,10.0,WNW,19.6,28.8,N/A,,Clear,300,2011-10-17 21:51:00
4:51 PM,51.1,21.9,32,30.19,10.0,NW,19.6,26.5,N/A,,Clear,320,2011-10-17 22:51:00
5:51 PM,48.9,21.9,35,30.21,10.0,NW,15.0,-,N/A,,Clear,310,2011-10-17 23:51:00
6:51 PM,46.0,23.0,40,30.24,10.0,NW,13.8,-,N/A,,Clear,310,2011-10-18 00:51:00
8:51 PM,42.1,26.1,53,30.25,10.0,West,11.5,-,N/A,,Clear,280,2011-10-18 02:51:00
9:51 PM,39.9,27.0,60,30.26,10.0,West,10.4,-,N/A,,Clear,280,2011-10-18 03:51:00
10:51 PM,39.0,27.0,62,30.27,10.0,NNW,3.5,-,N/A,,Clear,340,2011-10-18 04:51:00
11:51 PM,35.1,25.0,67,30.27,10.0,Calm,Calm,-,N/A,,Clear,0,2011-10-18 05:51:00